Regional Weather Roundup
Issued by NWS

Home | Current Version | Previous Version | Text Only | Print | Product List | Glossary Off
Versions: 1 2 3 4 5 6 7 8 9 10 11 12 13 14 15 16 17 18 19 20 21 22 23 24 25 26 27 28 29 30 31 32 33 34 35 36 37 38 39 40 41 42 43 44 45 46 47 48 49 50

000
ASUS43 KFSD 221102
RWRSD

WEATHER ROUNDUP FOR SOUTH DAKOTA
NATIONAL WEATHER SERVICE SIOUX FALLS SD
600 AM CDT SUN OCT 22 2017

NOTE: "FAIR" INDICATES FEW OR NO CLOUDS BELOW 12,000 FEET WITH NO
SIGNIFICANT WEATHER AND/OR OBSTRUCTIONS TO VISIBILITY.


SDZ001>005-009-010-012>017-221200-
NORTHWEST AND NORTH CENTRAL SOUTH DAKOTA

CITY           SKY/WX    TMP DP  RH WIND       PRES   REMARKS
BUFFALO          N/A     33  18  53 SW8       29.83S WCI  26
MOBRIDGE       CLEAR     31  26  82 CALM      29.90S
$$

SDZ012>016-024>037-041>051-057-063-072>074-221200-
SOUTHWEST AND SOUTH CENTRAL SOUTH DAKOTA

CITY           SKY/WX    TMP DP  RH WIND       PRES   REMARKS
RAPID CTY ARPT CLEAR     31  17  56 SE5       29.96F WCI  26
PIERRE         CLEAR     36  28  73 SW7       29.96F
CUSTER         CLEAR     33  12  41 W8        29.98S WCI  26
ELLSWORTH AFB  CLEAR     35  16  46 W8        29.95S WCI  28
PHILIP         CLEAR     30  24  78 W3        29.98S
PINE RIDGE     CLEAR     26  18  71 CALM      30.01F
SPEARFISH      FAIR      36  16  44 NE5G13    29.94S
WINNER         FAIR      43  27  53 SW12      30.01S
$$

SDZ004>011-016>023-039-040-221200-
NORTHEAST SOUTH DAKOTA

CITY           SKY/WX    TMP DP  RH WIND       PRES   REMARKS
ABERDEEN       CLEAR     30  28  92 S6        29.93R WCI  24
WATERTOWN      CLEAR     35  33  92 SW3       29.93R
BROOKINGS      CLEAR     39  34  82 W3        29.98R
SISSETON         N/A     44  35  70 W13       29.89R
$$

SDZ017-020-022-023-036>040-048>070-221200-
SOUTHEAST SOUTH DAKOTA

CITY           SKY/WX    TMP DP  RH WIND       PRES   REMARKS
SIOUX FALLS    CLEAR     37  34  89 CALM      30.01R
HURON          CLEAR     38  32  79 W8        29.97S
CHAMBERLAIN    CLEAR     39  31  72 CALM      30.00S
MITCHELL       CLEAR     40  31  70 W13       30.00R
YANKTON        CLEAR     35  32  88 CALM      30.03R
$$

ABBREVIATIONS USED IN REMARKS
   TC - TEMPERATURE IN CELSIUS
  WCI - WIND CHILL INDEX
   HX - HEAT INDEX
  VSB - VISIBILITY





USA.gov is the U.S. government's official web portal to all federal, state and local government web resources and services.